[[{"header":{"parameterUnit":"m.s-1","parameterCategory":1,"la1":30.2991,"la2":30.254,"lo1":-89.0895,"lo2":-89.0444,"dy":0.0017,"dx":0.0017,"nx":28,"ny":28,"refTime":"2025-03-25T21:00:00:Z","depth":0,"parameterNumber":2,"parameterNumberName":"U-component_of_WINDS"},"data":[0,0,0,0,0,0,0,0,0,0,0,0,0,0,0,0,0,0,0,0,0,0,0,0,0,0,0,0,0,0,0,0,0,0,0,0,0,0,0,0,0,0,0,0,0,0,0,0,0,0,0,0,0,0,0,0,0,0,1.6964,1.6965,0,1.7017,1.7017,1.7018,1.6955,1.6952,1.695,1.6948,1.7006,1.701,1.7013,0,0,0,0,0,0,0,0,0,0,0,0,0,1.6813,1.6817,1.6964,1.6965,1.6965,1.7017,1.7017,1.7018,1.6955,1.6952,1.6949,1.6947,1.7005,1.7009,1.7014,0,0,0,0,0,0,0,0,0,0,0,0,0,1.6874,1.6818,1.6964,1.694,1.6938,1.7016,1.7017,1.7018,1.6956,1.6952,1.6949,1.6945,1.7003,1.7009,1.7014,1.712,0,0,1.7031,1.7034,0,0,0,0,0,0,0,0,1.6871,1.688,1.6943,1.6942,1.694,1.6975,1.6985,1.7052,1.6957,1.6949,1.6948,1.6944,1.6999,1.7005,1.7022,1.7122,1.7125,1.7032,1.7035,1.7038,1.7039,0,0,0,0,0,0,0,1.6866,1.6877,1.6985,1.6944,1.6942,1.6928,1.6933,1.6998,1.6993,1.695,1.6945,1.6952,1.6997,1.7017,1.7023,1.7126,1.7032,1.7037,1.704,1.7042,1.7315,1.7319,0,0,0,0,0,0,1.6864,1.6874,1.6983,1.6986,1.6896,1.6934,1.6939,1.6968,1.6992,1.6993,1.6955,1.6949,1.7009,1.7017,1.7025,1.715,1.7038,1.7043,1.7046,1.7311,1.7316,1.732,0,0,0,0,0,0,1.6861,1.6875,1.6981,1.6929,1.6941,1.694,1.6973,1.6971,1.699,1.6996,1.6996,1.6976,1.7007,1.7017,1.7096,1.7151,1.7045,1.7051,1.7307,1.7313,1.7318,1.7401,0,0,0,0,0,0,1.6857,1.6874,1.6913,1.693,1.6944,1.705,1.6976,1.6974,1.6999,1.6992,1.7016,1.7016,1.7005,1.7088,1.7102,1.7157,1.7055,1.7302,1.731,1.7316,1.7394,1.7409,1.7423,0,0,0,0,0,1.6852,1.6935,1.6915,1.6929,1.6993,1.7054,1.7062,1.7046,1.7004,1.7044,1.7048,1.7015,1.7143,1.7097,1.7112,1.7169,1.7298,1.7307,1.7316,1.7387,1.7406,1.7422,0,0,0,0,0,0,1.6926,1.6937,1.6915,1.7006,1.7029,1.7043,1.7092,1.7067,1.7103,1.7095,1.7075,1.7081,1.7165,1.7175,1.7124,1.7273,1.7214,1.7226,1.7263,1.7281,1.7296,1.7291,1.706,0,0,0,0,0,1.6952,1.6999,1.7007,1.7087,1.7099,1.7094,1.712,1.7106,1.713,1.714,1.7149,1.7175,1.7221,1.7252,1.7294,1.7395,1.74,1.7442,1.7457,1.7468,1.7479,1.7534,1.7553,1.7349,1.7349,1.7349,0,0,1.7008,1.702,1.7051,1.7102,1.7118,1.7168,1.7103,1.7159,1.7197,1.7148,1.7223,1.7232,1.7259,1.735,1.739,1.7361,1.7536,1.7479,1.7489,1.7493,1.7545,1.7564,1.7581,1.7355,1.7354,1.7353,0,0,1.7135,1.7149,1.7216,1.7234,1.7259,1.7255,1.7272,1.7289,1.7293,1.7367,1.7332,1.7378,1.7457,1.7478,1.7499,1.7635,1.7607,1.765,1.7726,1.7779,1.7795,1.7809,1.7858,1.7876,1.7661,1.7661,1.7661,0,1.7201,1.7274,1.7255,1.7313,1.7337,1.7294,1.7363,1.7382,1.7421,1.7439,1.7405,1.7504,1.752,1.7614,1.7647,1.7666,1.7685,1.7647,1.7794,1.7808,1.7821,1.7867,1.7886,1.7666,1.7665,1.7665,1.7664,0,1.7355,1.7407,1.7458,1.7495,1.7525,1.7589,1.758,1.7612,1.7596,1.7596,1.7673,1.7691,1.7736,1.7758,1.7742,1.7851,1.7832,1.7797,1.7737,1.7846,1.7889,1.7907,1.7673,1.7671,1.767,1.7669,0,0,1.7529,1.7554,1.7574,1.759,1.7615,1.7655,1.7718,1.7761,1.779,1.7818,1.7871,1.7939,1.7907,1.7931,1.7918,1.7965,1.8072,1.7924,1.7924,1.7951,1.8193,1.8219,1.824,1.8053,1.8056,1.8059,1.8191,0,1.7656,1.7762,1.7747,1.785,1.7898,1.7859,1.7913,1.7936,1.7938,1.798,1.7983,1.8032,1.7985,1.7999,1.8044,1.8049,1.812,1.804,1.8103,1.8105,1.8097,1.8262,1.829,1.8413,1.8207,1.821,1.8212,0,1.7819,1.7852,1.7959,1.7977,1.7997,1.8046,1.8084,1.8125,1.815,1.8148,1.8175,1.8154,1.8218,1.8158,1.8246,1.8192,1.8217,1.8224,1.8228,1.8233,1.8165,1.8272,1.8452,1.8471,1.8239,1.8237,1.8235,0,1.7935,1.8007,1.808,1.8095,1.8118,1.8154,1.8165,1.8187,1.8214,1.8248,1.8266,1.8308,1.8331,1.8365,1.8356,1.8313,1.8447,1.8386,1.8448,1.8449,1.8478,1.8476,1.8665,1.8495,1.8495,1.8494,1.8494,0,1.8078,1.8146,1.8132,1.8178,1.8253,1.8235,1.831,1.8317,1.8336,1.8383,1.8353,1.8398,1.8384,1.8429,1.8423,1.8497,1.8508,1.8509,1.8507,1.8512,1.8512,1.8528,1.8519,1.8499,1.8498,1.8497,1.8496,0,1.822,1.8214,1.8292,1.8307,1.8313,1.8367,1.8381,1.8424,1.8424,1.8484,1.8497,1.8498,1.8549,1.8544,1.8602,1.8598,1.869,1.8678,1.8681,1.8678,1.8741,1.8736,1.8947,1.8974,1.8787,1.8788,1.879,0,1.8312,1.8363,1.8383,1.8412,1.8426,1.8473,1.85,1.8485,1.8515,1.8548,1.8587,1.8636,1.8673,1.8758,1.8764,1.8808,1.8797,1.8868,1.8803,1.8807,1.8798,1.8795,1.88,1.888,1.8882,1.8884,1.8886,0,1.8476,1.847,1.851,1.8549,1.8582,1.8613,1.8641,1.8666,1.8654,1.869,1.8741,1.877,1.8829,1.8878,1.892,1.8933,1.8908,1.8906,1.8923,1.8928,1.8928,1.8929,1.8716,1.8901,1.8899,1.8898,1.8897,1.8897,1.8595,1.8638,1.866,1.8705,1.8725,1.8751,1.8793,1.8798,1.884,1.8885,1.8875,1.8933,1.8958,1.9011,1.9029,1.9075,1.905,1.9074,1.9081,1.9087,1.9094,1.8921,1.9083,1.9083,1.9082,1.9082,1.9082,0,1.8757,1.8769,1.8811,1.885,1.8886,1.8858,1.8888,1.892,1.8971,1.8996,1.9034,1.9093,1.9141,1.9151,1.9197,1.9232,1.9222,1.9244,1.9242,1.9245,1.9114,1.9095,1.9252,1.9252,1.9252,1.9252,1.9252,1.9252,1.8845,1.8917,1.8915,1.8996,1.9008,1.9064,1.9083,1.9108,1.9127,1.9195,1.9234,1.924,1.9259,1.9306,1.9349,1.935,1.9369,1.9396,1.9394,1.9271,1.9254,1.9238,1.922,1.94,1.9401,1.9521,1.9522,1.9523]},{"header":{"parameterUnit":"m.s-1","parameterCategory":1,"la1":30.2991,"la2":30.254,"lo1":-89.0895,"lo2":-89.0444,"dy":0.0017,"dx":0.0017,"nx":28,"ny":28,"refTime":"2025-03-25T21:00:00:Z","depth":0,"parameterNumber":3,"parameterNumberName":"V-component_of_WINDS"},"data":[0,0,0,0,0,0,0,0,0,0,0,0,0,0,0,0,0,0,0,0,0,0,0,0,0,0,0,0,0,0,0,0,0,0,0,0,0,0,0,0,0,0,0,0,0,0,0,0,0,0,0,0,0,0,0,0,0,0,-0.0495,-0.0495,0,-0.0439,-0.0438,-0.0438,-0.0425,-0.0426,-0.0426,-0.0427,-0.0367,-0.0365,-0.0363,0,0,0,0,0,0,0,0,0,0,0,0,0,-0.059,-0.0588,-0.0495,-0.0494,-0.0494,-0.0439,-0.0438,-0.0438,-0.0425,-0.0426,-0.0426,-0.0427,-0.0368,-0.0365,-0.0363,0,0,0,0,0,0,0,0,0,0,0,0,0,-0.0543,-0.0588,-0.0495,-0.0481,-0.0479,-0.0439,-0.0438,-0.0437,-0.0425,-0.0426,-0.0426,-0.0427,-0.0368,-0.0366,-0.0363,-0.0332,0,0,-0.0354,-0.0352,0,0,0,0,0,0,0,0,-0.0546,-0.0539,-0.0484,-0.0482,-0.048,-0.044,-0.045,-0.0402,-0.0425,-0.0446,-0.0427,-0.0427,-0.0391,-0.0386,-0.0374,-0.0329,-0.0327,-0.0353,-0.0352,-0.035,-0.035,0,0,0,0,0,0,0,-0.0549,-0.0542,-0.0473,-0.0483,-0.0481,-0.0477,-0.0471,-0.0441,-0.0415,-0.0444,-0.0443,-0.0437,-0.039,-0.0377,-0.0372,-0.0326,-0.0353,-0.0351,-0.0349,-0.0348,-0.0253,-0.0253,0,0,0,0,0,0,-0.0555,-0.0545,-0.0475,-0.0471,-0.0515,-0.0475,-0.0468,-0.0452,-0.0416,-0.0411,-0.0436,-0.0436,-0.0382,-0.0376,-0.037,-0.0332,-0.035,-0.0348,-0.0346,-0.0254,-0.0253,-0.0253,0,0,0,0,0,0,-0.0557,-0.0549,-0.0477,-0.0508,-0.0498,-0.0473,-0.0455,-0.0451,-0.0438,-0.041,-0.0405,-0.0428,-0.0382,-0.0374,-0.0342,-0.033,-0.0346,-0.0344,-0.0255,-0.0254,-0.0253,-0.0255,0,0,0,0,0,0,-0.056,-0.055,-0.0538,-0.0507,-0.0497,-0.045,-0.0454,-0.0449,-0.0433,-0.0433,-0.0401,-0.0396,-0.0382,-0.0346,-0.0339,-0.0326,-0.0341,-0.0256,-0.0255,-0.0253,-0.0256,-0.0255,-0.0253,0,0,0,0,0,-0.0563,-0.054,-0.0538,-0.0529,-0.0482,-0.0449,-0.0443,-0.0428,-0.0432,-0.042,-0.0402,-0.0397,-0.0333,-0.0343,-0.0335,-0.0321,-0.0257,-0.0255,-0.0253,-0.0257,-0.0255,-0.0253,0,0,0,0,0,0,-0.0569,-0.0536,-0.0532,-0.0499,-0.0477,-0.0447,-0.0431,-0.0426,-0.0401,-0.0402,-0.0384,-0.0376,-0.0345,-0.033,-0.0342,-0.0289,-0.0295,-0.0291,-0.03,-0.0298,-0.0297,-0.0301,-0.0339,0,0,0,0,0,-0.0567,-0.0544,-0.0516,-0.0489,-0.0479,-0.0457,-0.0442,-0.0433,-0.0409,-0.0399,-0.0379,-0.0355,-0.033,-0.0313,-0.0288,-0.0254,-0.0247,-0.0241,-0.0239,-0.0238,-0.0235,-0.0216,-0.0213,-0.0247,-0.0247,-0.0247,0,0,-0.0562,-0.0541,-0.0527,-0.049,-0.0472,-0.0448,-0.0449,-0.0424,-0.0406,-0.0395,-0.0363,-0.0347,-0.032,-0.0287,-0.0271,-0.0273,-0.0224,-0.0236,-0.0235,-0.0232,-0.0214,-0.0211,-0.0208,-0.0246,-0.0246,-0.0246,0,0,-0.0539,-0.0521,-0.0497,-0.0479,-0.0452,-0.0438,-0.0432,-0.0403,-0.0393,-0.0361,-0.0352,-0.033,-0.0287,-0.0267,-0.0252,-0.0224,-0.0218,-0.0216,-0.0207,-0.0189,-0.0186,-0.0184,-0.0173,-0.017,-0.0213,-0.0213,-0.0213,0,-0.0536,-0.05,-0.0485,-0.0461,-0.0444,-0.0435,-0.041,-0.0393,-0.0359,-0.0348,-0.0351,-0.0296,-0.0277,-0.0239,-0.0232,-0.022,-0.0213,-0.0219,-0.0188,-0.0185,-0.0183,-0.0172,-0.0169,-0.0213,-0.0213,-0.0213,-0.0213,0,-0.0497,-0.0472,-0.0456,-0.0424,-0.0406,-0.0381,-0.0363,-0.0346,-0.0338,-0.0324,-0.0291,-0.0268,-0.0239,-0.0229,-0.0221,-0.019,-0.0192,-0.0192,-0.0197,-0.018,-0.017,-0.0166,-0.0213,-0.0213,-0.0213,-0.0213,0,0,-0.0476,-0.0437,-0.0431,-0.0417,-0.0386,-0.0367,-0.0342,-0.0313,-0.03,-0.0276,-0.0255,-0.0218,-0.0218,-0.0201,-0.019,-0.0174,-0.0153,-0.0176,-0.0175,-0.0172,-0.0118,-0.0118,-0.0113,-0.015,-0.0149,-0.0148,-0.012,0,-0.045,-0.0405,-0.0392,-0.0354,-0.0331,-0.0322,-0.03,-0.0279,-0.0265,-0.0243,-0.0227,-0.0202,-0.0203,-0.0193,-0.0177,-0.0159,-0.0142,-0.0161,-0.0128,-0.0127,-0.0135,-0.0108,-0.0108,-0.0083,-0.0116,-0.0115,-0.0115,0,-0.0413,-0.039,-0.035,-0.0324,-0.0313,-0.0294,-0.0267,-0.0246,-0.0222,-0.0213,-0.0194,-0.0185,-0.0158,-0.0166,-0.0128,-0.0141,-0.0127,-0.0117,-0.0115,-0.0111,-0.012,-0.0103,-0.0074,-0.007,-0.0109,-0.0109,-0.011,0,-0.0401,-0.0361,-0.0332,-0.032,-0.0287,-0.0274,-0.026,-0.0236,-0.022,-0.0197,-0.0186,-0.016,-0.0145,-0.0124,-0.0108,-0.0115,-0.0072,-0.0078,-0.0063,-0.0064,-0.0054,-0.0055,-0.0022,-0.0046,-0.0046,-0.0046,-0.0046,0,-0.0373,-0.0349,-0.0326,-0.0308,-0.0281,-0.0266,-0.0239,-0.0225,-0.0204,-0.0183,-0.0173,-0.0153,-0.0134,-0.0111,-0.0099,-0.007,-0.0063,-0.0055,-0.0051,-0.0055,-0.0056,-0.0045,-0.0046,-0.0045,-0.0045,-0.0046,-0.0046,0,-0.0355,-0.0339,-0.0307,-0.0279,-0.0272,-0.0253,-0.0229,-0.0211,-0.0198,-0.0171,-0.0164,-0.0142,-0.0115,-0.0097,-0.0063,-0.0054,-0.0022,-0.002,-0.0031,-0.0029,-0.0015,-0.0017,0.0026,0.0033,0.0004,0.0004,0.0004,0,-0.0338,-0.0319,-0.029,-0.0276,-0.0262,-0.0239,-0.0222,-0.0207,-0.019,-0.0162,-0.0147,-0.012,-0.0097,-0.0055,-0.0035,-0.0009,-0.0006,0.0008,-0.0001,-0.0006,-0.0005,-0.0006,-0.0004,0.0009,0.001,0.001,0.001,0,-0.0309,-0.0302,-0.0279,-0.0254,-0.0235,-0.0215,-0.0194,-0.0182,-0.0163,-0.0145,-0.0118,-0.0101,-0.0066,-0.0039,-0.0011,0.0004,0.0011,0.0012,0.0017,0.0014,0.0007,0.0011,-0.0026,0.0012,0.0011,0.0011,0.0011,0.0011,-0.029,-0.0273,-0.025,-0.0226,-0.0209,-0.019,-0.0172,-0.0156,-0.0133,-0.0104,-0.0097,-0.0068,-0.0045,-0.0007,0.0009,0.0031,0.003,0.0037,0.0039,0.004,0.0041,0.0003,0.0036,0.0036,0.0036,0.0036,0.0036,0,-0.026,-0.0245,-0.0223,-0.0195,-0.0175,-0.0172,-0.0149,-0.0133,-0.0108,-0.0087,-0.0066,-0.0035,-0.0009,0.0012,0.0039,0.0054,0.0057,0.006,0.006,0.0063,0.004,0.0034,0.0057,0.0057,0.0057,0.0057,0.0057,0.0057,-0.0242,-0.0214,-0.0204,-0.0167,-0.0152,-0.0125,-0.0112,-0.0095,-0.0078,-0.0044,-0.0022,-0.0009,0.0012,0.004,0.0064,0.007,0.008,0.0082,0.0088,0.0067,0.0065,0.0063,0.0056,0.0084,0.0084,0.0109,0.011,0.011]}]]